Location: Newark
(45.8667°N, 9.7333°E)
Time: 00:02:47
(UTC+00:00)

Vanguard 2 Rocket - Pass Details

Date: 29 January 2020
Orbit: 553 x 3327 km, 32.9° (Epoch: 24 February)

Event Time Altitude Azimuth Distance (km) Brightness Sun altitude
Rises 08:03:24 0° 252° (WSW) 3,389 9.5 10.3°
Reaches altitude 10° 08:06:46 10° 228° (SW) 2,805 9.4 10.8°
Maximum altitude 08:10:29 15° 195° (SSW) 2,844 9.9 11.3°
Drops below altitude 10° 08:15:14 10° 164° (SSE) 3,770 11.2 11.9°
Sets 08:21:09 0° 145° (SE) 5,416 12.7 12.6°
